This demonstration page uses our WeatherBlox Daily Observations layout. Learn more.

Left ArrowRight Arrow

40.92945, -100.16068

Hourly Observations for November 14, 2018

Temp ( °F °C ) Dew Point ( °F °C ) Humidity (%) Winds ( mph kmh ) Pressure ( in mb ) Visibility ( mi km ) Precip ( " mm )
12:15 am 00:15 Clear 23 -5 19 -7.3 84 84 Calm 30.53 1034 10 16.0934 0 0
12:35 am 00:35 Clear 24 -4.7 19 -7.1 84 84 Calm 30.5 1033 10 16.0934 0 0
12:55 am 00:55 Clear 23 -4.8 19 -7.2 84 84 ENE 3 6 30.5 1033 10 16.0934 0 0
1:15 am 01:15 Clear 23 -5 19 -7.5 83 83 E 5 7 30.53 1034 10 16.0934 0 0
1:35 am 01:35 Clear 23 -5 19 -7.4 83 83 E 3 6 30.53 1034 10 16.0934 0 0
1:55 am 01:55 Clear 22 -5.7 18 -8 84 84 Calm 30.53 1034 10 16.0934 0 0
2:15 am 02:15 Clear 22 -5.5 18 -7.6 85 85 Calm 30.53 1034 10 16.0934 0 0
2:35 am 02:35 Clear 21 -6 18 -8 86 86 NW 5 7 30.53 1034 10 16.0934 0 0
2:55 am 02:55 Clear 22 -5.4 19 -7.4 86 86 W 3 6 30.53 1034 10 16.0934 0 0
3:15 am 03:15 Clear 23 -5.1 19 -7.4 84 84 W 5 7 30.53 1034 10 16.0934 0 0
3:35 am 03:35 Clear 21 -6 18 -7.9 87 87 W 5 7 30.5 1033 10 16.0934 0 0
3:55 am 03:55 Clear 22 -5.5 18 -7.6 85 85 W 6 9 30.5 1033 10 16.0934 0 0
4:15 am 04:15 Clear 22 -5.7 18 -7.8 85 85 W 7 11 30.5 1033 10 16.0934 0 0
4:35 am 04:35 Clear 22 -5.5 19 -7.5 86 86 WNW 7 11 30.5 1033 10 16.0934 0 0
4:55 am 04:55 Clear 23 -5.2 19 -7.5 84 84 W 5 7 30.48 1032 10 16.0934 0 0
5:15 am 05:15 Clear 22 -5.4 18 -7.7 84 84 WNW 8 13 30.5 1033 10 16.0934 0 0
5:35 am 05:35 Clear 22 -5.5 18 -7.7 85 85 WNW 6 9 30.5 1033 10 16.0934 0 0
5:55 am 05:55 Clear 22 -5.5 18 -7.7 85 85 W 6 9 30.5 1033 10 16.0934 0 0
6:15 am 06:15 Clear 22 -5.7 18 -7.9 85 85 W 6 9 30.5 1033 10 16.0934 0 0
6:35 am 06:35 Clear 21 -6.1 17 -8.1 86 86 W 3 6 30.5 1033 10 16.0934 0 0
6:55 am 06:55 Clear 21 -6 18 -8 86 86 WNW 3 6 30.5 1033 10 16.0934 0 0
7:15 am 07:15 Clear 21 -6.1 17 -8.4 84 84 WNW 5 7 30.5 1033 10 16.0934 0 0
7:35 am 07:35 Sunny 21 -6.1 17 -8.4 84 84 W 3 6 30.5 1033 10 16.0934 0 0
7:55 am 07:55 Sunny 21 -5.9 18 -8 85 85 Calm 30.5 1033 10 16.0934 0 0
8:15 am 08:15 Sunny 24 -4.3 20 -6.4 85 85 NW 3 6 30.48 1032 10 16.0934 0 0
8:35 am 08:35 Sunny 28 -2.5 23 -5.1 83 83 WNW 5 7 30.48 1032 10 16.0934 0 0
8:55 am 08:55 Sunny 30 -1 25 -3.8 82 82 WNW 3 6 30.45 1031 10 16.0934 0 0
9:15 am 09:15 Sunny 32 0.1 27 -2.9 80 80 W 5 7 30.45 1031 10 16.0934 0 0
9:35 am 09:35 Sunny 34 1.3 27 -2.6 76 76 W 3 6 30.42 1030 10 16.0934 0 0
9:55 am 09:55 Sunny 37 2.6 28 -2.1 71 71 WNW 3 6 30.42 1030 10 16.0934 0 0
10:15 am 10:15 Sunny 40 4.3 28 -2 64 64 Calm 30.39 1029 10 16.0934 0 0
10:35 am 10:35 Sunny 43 5.9 29 -1.9 58 58 Calm 30.39 1029 10 16.0934 0 0
10:55 am 10:55 Sunny 45 7.2 28 -2.4 51 51 WSW 3 6 30.33 1027 10 16.0934 0 0
11:15 am 11:15 Sunny 47 8.6 28 -2.2 47 47 Calm 30.33 1027 10 16.0934 0 0
11:35 am 11:35 Sunny 50 10.1 28 -2.3 42 42 Calm 30.3 1026 10 16.0934 0 0
11:55 am 11:55 Sunny 53 11.5 29 -1.5 41 41 S 5 7 30.27 1025 10 16.0934 0 0
12:15 pm 12:15 Sunny 55 13 30 -1 38 38 S 7 11 30.24 1024 10 16.0934 0 0
12:35 pm 12:35 Sunny 57 13.7 29 -1.6 35 35 S 9 15 30.21 1023 10 16.0934 0 0
12:55 pm 12:55 Sunny 58 14.6 28 -2.1 32 32 SW 10 17 30.21 1023 10 16.0934 0 0
1:15 pm 13:15 Sunny 58 14.6 29 -1.8 33 33 S 9 15 30.18 1022 10 16.0934 0 0
1:35 pm 13:35 Sunny 58 14.5 29 -1.5 33 33 S 10 17 30.18 1022 10 16.0934 0 0
1:55 pm 13:55 Sunny 58 14.5 29 -1.6 33 33 SSW 12 19 30.18 1022 10 16.0934 0 0
2:15 pm 14:15 Sunny 58 14.3 28 -2.3 32 32 SSW 12 19 30.18 1022 10 16.0934 0 0
2:35 pm 14:35 Sunny 57 14 29 -1.6 34 34 SSW 10 17 30.15 1021 10 16.0934 0 0
2:55 pm 14:55 Sunny 57 13.8 29 -1.6 35 35 SSW 13 20 30.15 1021 10 16.0934 0 0
3:15 pm 15:15 Sunny 57 13.9 29 -1.5 35 35 SSW 12 19 30.15 1021 10 16.0934 0 0
3:35 pm 15:35 Sunny 57 13.9 29 -1.7 34 34 SSW 10 17 30.12 1020 10 16.0934 0 0
3:55 pm 15:55 Sunny 57 13.8 29 -1.6 35 35 SSW 10 17 30.12 1020 10 16.0934 0 0
4:15 pm 16:15 Sunny 56 13.6 29 -1.6 35 35 S 9 15 30.12 1020 10 16.0934 0 0
4:35 pm 16:35 Sunny 55 13 29 -1.8 36 36 S 9 15 30.12 1020 10 16.0934 0 0
4:55 pm 16:55 Sunny 53 11.5 29 -1.8 40 40 S 8 13 30.12 1020 10 16.0934 0 0
5:15 pm 17:15 Sunny 47 8.6 28 -2 48 48 S 9 15 30.15 1021 10 16.0934 0 0
5:35 pm 17:35 Clear 44 6.6 28 -2.1 54 54 S 10 17 30.15 1021 10 16.0934 0 0
5:55 pm 17:55 Clear 44 6.4 28 -2 55 55 S 9 15 30.15 1021 10 16.0934 0 0
6:10 pm 18:10 Clear 41 4.9 28 -2.5 59 59 S 8 13 30.15 1021 7 11.26538 0 0
6:35 pm 18:35 Clear 40 4.5 28 -2.5 61 61 SSE 8 13 30.18 1022 10 16.0934 0 0
6:55 pm 18:55 Clear 40 4.6 28 -2.3 61 61 SSE 9 15 30.15 1021 10 16.0934 0 0
7:15 pm 19:15 Clear 40 4.5 28 -2 63 63 SSE 9 15 30.18 1022 10 16.0934 0 0
7:35 pm 19:35 Clear 41 4.9 29 -1.6 63 63 SSE 9 15 30.15 1021 10 16.0934 0 0
7:55 pm 19:55 Clear 41 5 29 -1.6 63 63 SSE 7 11 30.15 1021 10 16.0934 0 0
8:15 pm 20:15 Clear 40 4.7 30 -1.3 65 65 SSE 8 13 30.15 1021 10 16.0934 0 0
8:35 pm 20:35 Clear 40 4.2 30 -1.1 69 69 S 7 11 30.15 1021 10 16.0934 0 0
8:55 pm 20:55 Clear 40 4.2 31 -0.6 71 71 SSE 12 19 30.15 1021 10 16.0934 0 0
9:15 pm 21:15 Clear 39 4.1 31 -0.6 72 72 S 10 17 30.15 1021 10 16.0934 0 0
9:35 pm 21:35 Clear 38 3.5 31 -0.5 75 75 SSE 9 15 30.15 1021 10 16.0934 0 0
9:55 pm 21:55 Clear 37 3 31 -0.6 77 77 S 5 7 30.15 1021 10 16.0934 0 0
10:15 pm 22:15 Clear 38 3.1 31 -0.5 77 77 Calm 30.15 1021 10 16.0934 0 0
10:35 pm 22:35 Clear 38 3.5 31 -0.8 74 74 S 6 9 30.15 1021 10 16.0934 0 0
10:55 pm 22:55 Clear 37 2.6 30 -1.3 76 76 ESE 3 6 30.12 1020 10 16.0934 0 0
11:15 pm 23:15 Clear 38 3.5 30 -1 73 73 SSE 6 9 30.12 1020 10 16.0934 0 0
11:35 pm 23:35 Clear 35 1.6 29 -1.5 80 80 SSE 6 9 30.12 1020 10 16.0934 0 0
11:55 pm 23:55 Clear 34 1.1 29 -1.8 81 81 SE 3 6 30.12 1020 10 16.0934 0 0

Powered by AerisWeather